Regional Weather Roundup
Issued by NWS Albany, NY

Home | Current Version | Previous Version | Text Only | Print | Product List | Glossary Off
Versions: 1 2 3 4 5 6 7 8 9 10 11 12 13 14 15 16 17 18 19 20 21 22 23 24 25 26 27 28 29 30 31 32 33 34 35 36 37 38 39 40 41 42 43 44 45 46 47 48 49 50

000
ASUS41 KALY 091710
RWRALY

NEW YORK STATE HOURLY WEATHER ROUNDUP
NATIONAL WEATHER SERVICE ALBANY NY
1200 PM EST FRI DEC 09 2016

NOTE: "FAIR" INDICATES FEW OR NO CLOUDS BELOW 12,000 FEET WITH NO
SIGNIFICANT WEATHER AND/OR NO OBSTRUCTIONS TO VISIBILITY.

NYZ032-033-038>043-046>054-057>066-NYZ062>081-082-084-091800-
EAST


CITY           SKY/WX    TMP DP  RH WIND       PRES   REMARKS
ALBANY         PTSUNNY   32  14  47 W24G31    30.06F WCI  19
GLENS FALLS    MOSUNNY   30  11  45 N13       30.05S WCI  20
POUGHKEEPSIE   CLOUDY    36  15  42 W17G25    30.06F WCI  26
NEWBURGH       PTSUNNY   34  21  60 NW18G30   30.08F WCI  23
MONTGOMERY     CLOUDY    36  18  48 W14G28    30.07F WCI  27
WHITE PLAINS   PTSUNNY   37  17  44 W23G32    30.06F WCI  26
ISLIP          PTSUNNY   39  18  42 W22G32    30.06F WCI  29
NEW YORK CITY  MOSUNNY   40  19  43 NW18G30   30.10F WCI  31
CENTRAL PARK     N/A     39  19  45 MISG        N/A
$$

NYZ005>009-017-018-044>046-055-056-091800-
CENTRAL


CITY           SKY/WX    TMP DP  RH WIND       PRES   REMARKS
FULTON         CLOUDY    27  14  58 NW15      30.17S WCI  15
SYRACUSE       CLOUDY    26  14  60 NW12      30.17R WCI  16
ROME           CLOUDY    25  16  68 NW15      30.15S WCI  13
ELMIRA         PTSUNNY   30  13  49 NW13G26   30.16S WCI  20
BINGHAMTON     LGT SNOW  22  18  85 N14       30.08F FOG     WCI   9
MONTICELLO     MOSUNNY   28  21  74 NW21G26   30.06S WCI  15
$$

NYZ026>034-041>043-087-091800-
NORTH


CITY           SKY/WX    TMP DP  RH WIND       PRES   REMARKS
WATERTOWN      CLOUDY    26  13  57 NW15      30.15F WCI  14
FORT DRUM      NOT AVBL
OGDENSBURG     FAIR      27  13  55 NW10G20   30.12S WCI  17
MASSENA        CLOUDY    26  12  55 W16G23    30.10F WCI  14
SARANAC LAKE   CLOUDY    18   9  68 NW13G20   29.95S WCI   5
PLATTSBURGH    FLURRIES  26  13  57 NW9       30.03S WCI  17
$$

NYZ001>004-010>016-019>021-085-091800-
WEST


CITY           SKY/WX    TMP DP  RH WIND       PRES   REMARKS
NIAGARA FALLS  PTSUNNY   30  17  58 W12       30.25S WCI  20
BUFFALO        FLURRIES  27  18  69 NW9       30.24F WCI  18
DUNKIRK        CLOUDY    29  18  63 NW10G20   30.27F WCI  20
JAMESTOWN      CLOUDY    27  18  69 NW15      30.18F WCI  15
WELLSVILLE     CLOUDY    25  14  63 NW20G36   30.14S WCI  11
ROCHESTER      CLOUDY    27  13  55 NW14G21   30.22S WCI  16
PENN YAN       FLURRIES  26  15  63 NW9       30.18S WCI  17
$$

             KEY
       WCI = WIND CHILL INDEX
       VSB = VISIBILITY
       HX  = HEAT INDEX
$$



USA.gov is the U.S. government's official web portal to all federal, state and local government web resources and services.